| time (UTC) | temp F | wind direction | speed MPH | gust MPH | rain 1hr in | rain 24hr in | rain mn in | humidity % | barometer mb |
| 20260507132500 | 75 | 43 | 3.0 | 5.0 | 0.00 | 0.00 | 0.00 | 80 | 1014.0 |
| 20260507131459 | 74 | 43 | 3.0 | 5.0 | 0.00 | 0.00 | 0.00 | 80 | 1014.0 |
| 20260507130459 | 73 | 43 | 3.0 | 5.0 | 0.00 | 0.00 | 0.00 | 80 | 1014.0 |
| 20260507125459 | 72 | 43 | 3.0 | 5.0 | 0.00 | 0.00 | 0.00 | 80 | 1014.0 |
| 20260507124458 | 71 | 43 | 3.0 | 5.0 | 0.00 | 0.00 | 0.00 | 80 | 1014.0 |
| 20260507123458 | 70 | 43 | 3.0 | 5.0 | 0.00 | 0.00 | 0.00 | 80 | 1014.0 |
| 20260507122457 | 69 | 43 | 3.0 | 5.0 | 0.00 | 0.00 | 0.00 | 80 | 1014.0 |
| 20260507121457 | 68 | 43 | 3.0 | 5.0 | 0.00 | 0.00 | 0.00 | 80 | 1014.0 |
| 20260507120456 | 67 | 43 | 3.0 | 5.0 | 0.00 | 0.00 | 0.00 | 80 | 1014.0 |
| 20260507115456 | 66 | 43 | 3.0 | 5.0 | 0.00 | 0.00 | 0.00 | 80 | 1014.0 |
| 20260507114456 | 65 | 43 | 3.0 | 6.0 | 0.00 | 0.00 | 0.00 | 80 | 1014.0 |
| 20260507113456 | 71 | 46 | 3.0 | 5.0 | 0.00 | 0.00 | 0.00 | 79 | 1014.0 |
| 20260507112455 | 70 | 46 | 3.0 | 5.0 | 0.00 | 0.00 | 0.00 | 79 | 1013.0 |
| 20260507111455 | 69 | 46 | 3.0 | 5.0 | 0.00 | 0.00 | 0.00 | 79 | 1013.0 |
| 20260507110454 | 68 | 46 | 3.0 | 5.0 | 0.00 | 0.00 | 0.00 | 79 | 1013.0 |
| 20260507105454 | 67 | 46 | 3.0 | 5.0 | 0.00 | 0.00 | 0.00 | 79 | 1013.0 |
| 20260507104454 | 66 | 46 | 3.0 | 5.0 | 0.00 | 0.00 | 0.00 | 79 | 1013.0 |
| 20260507103453 | 65 | 46 | 3.0 | 5.0 | 0.00 | 0.00 | 0.00 | 79 | 1013.0 |
| 20260507102454 | 73 | 51 | 3.0 | 5.0 | 0.00 | 0.00 | 0.00 | 76 | 1013.0 |
| 20260507101453 | 72 | 51 | 3.0 | 5.0 | 0.00 | 0.00 | 0.00 | 76 | 1013.0 |
| 20260507100452 | 72 | 51 | 3.0 | 5.0 | 0.00 | 0.00 | 0.00 | 76 | 1013.0 |
| 20260507095452 | 71 | 51 | 3.0 | 5.0 | 0.00 | 0.00 | 0.00 | 76 | 1013.0 |
| 20260507094452 | 70 | 51 | 3.0 | 5.0 | 0.00 | 0.00 | 0.00 | 76 | 1013.0 |
| 20260507093452 | 69 | 51 | 3.0 | 6.0 | 0.00 | 0.00 | 0.00 | 76 | 1013.0 |
| 20260507092451 | 69 | 51 | 3.0 | 6.0 | 0.00 | 0.00 | 0.00 | 76 | 1013.0 |
| 20260507091451 | 74 | 48 | 3.0 | 5.0 | 0.00 | 0.00 | 0.00 | 78 | 1013.0 |
| 20260507090451 | 74 | 48 | 3.0 | 5.0 | 0.00 | 0.00 | 0.00 | 78 | 1013.0 |
| 20260507085450 | 73 | 48 | 3.0 | 5.0 | 0.00 | 0.00 | 0.00 | 78 | 1013.0 |
| 20260507084450 | 72 | 48 | 3.0 | 5.0 | 0.00 | 0.00 | 0.00 | 78 | 1013.0 |
| 20260507083449 | 71 | 48 | 3.0 | 5.0 | 0.00 | 0.00 | 0.00 | 78 | 1013.0 |
| 20260507082449 | 70 | 48 | 3.0 | 5.0 | 0.00 | 0.00 | 0.00 | 78 | 1013.0 |
| 20260507081449 | 69 | 48 | 3.0 | 5.0 | 0.00 | 0.00 | 0.00 | 78 | 1013.0 |
| 20260507080449 | 68 | 48 | 3.0 | 6.0 | 0.00 | 0.00 | 0.00 | 78 | 1013.0 |
| 20260507075448 | 74 | 44 | 3.0 | 4.0 | 0.00 | 0.00 | 0.00 | 80 | 1013.0 |
| 20260507074448 | 73 | 44 | 3.0 | 4.0 | 0.00 | 0.00 | 0.00 | 80 | 1013.0 |
| 20260507073447 | 72 | 44 | 3.0 | 4.0 | 0.00 | 0.00 | 0.00 | 80 | 1013.0 |
| 20260507072447 | 71 | 44 | 3.0 | 4.0 | 0.00 | 0.00 | 0.00 | 80 | 1014.0 |
| 20260507071447 | 70 | 44 | 3.0 | 4.0 | 0.00 | 0.00 | 0.00 | 80 | 1014.0 |
| 20260507070446 | 69 | 44 | 3.0 | 4.0 | 0.00 | 0.00 | 0.00 | 80 | 1014.0 |
| 20260507065446 | 68 | 44 | 3.0 | 4.0 | 0.00 | 0.00 | 0.00 | 80 | 1014.0 |
| 20260507064446 | 67 | 44 | 3.0 | 4.0 | 0.00 | 0.00 | 0.00 | 80 | 1014.0 |
| 20260507063445 | 66 | 44 | 3.0 | 4.0 | 0.00 | 0.00 | 0.00 | 80 | 1014.0 |
| 20260507062445 | 65 | 44 | 3.0 | 4.0 | 0.00 | 0.00 | 0.00 | 80 | 1015.0 |
| 20260507061444 | 71 | 44 | 3.0 | 4.0 | 0.00 | 0.00 | 0.00 | 82 | 1015.0 |
| 20260507060444 | 70 | 44 | 3.0 | 4.0 | 0.00 | 0.00 | 0.00 | 82 | 1015.0 |
| 20260507055444 | 69 | 44 | 3.0 | 4.0 | 0.00 | 0.00 | 0.00 | 82 | 1015.0 |
| 20260507054443 | 68 | 44 | 3.0 | 4.0 | 0.00 | 0.00 | 0.00 | 82 | 1015.0 |
| 20260507053443 | 72 | 45 | 3.0 | 3.0 | 0.00 | 0.00 | 0.00 | 79 | 1015.0 |
| 20260507052442 | 71 | 45 | 3.0 | 3.0 | 0.00 | 0.00 | 0.00 | 79 | 1015.0 |
| 20260507051442 | 70 | 45 | 3.0 | 3.0 | 0.00 | 0.00 | 0.00 | 79 | 1015.0 |
| 20260507050441 | 69 | 45 | 3.0 | 3.0 | 0.00 | 0.00 | 0.00 | 79 | 1015.0 |
| 20260507045441 | 68 | 45 | 3.0 | 3.0 | 0.00 | 0.00 | 0.00 | 79 | 1015.0 |
| 20260507044441 | 67 | 45 | 3.0 | 3.0 | 0.00 | 0.00 | 0.00 | 79 | 1015.0 |
| 20260507043441 | 66 | 45 | 3.0 | 3.0 | 0.00 | 0.00 | 0.00 | 79 | 1015.0 |
| 20260507042440 | 72 | 52 | 3.0 | 3.0 | 0.00 | 0.00 | 0.00 | 75 | 1015.0 |
| 20260507041440 | 71 | 52 | 3.0 | 3.0 | 0.00 | 0.00 | 0.00 | 75 | 1015.0 |
| 20260507040439 | 70 | 52 | 3.0 | 3.0 | 0.00 | 0.00 | 0.00 | 75 | 1015.0 |
| 20260507035439 | 69 | 52 | 3.0 | 3.0 | 0.00 | 0.00 | 0.00 | 75 | 1015.0 |
| 20260507034438 | 68 | 52 | 3.0 | 3.0 | 0.00 | 0.00 | 0.00 | 75 | 1015.0 |
| 20260507033438 | 73 | 55 | 3.0 | 4.0 | 0.00 | 0.00 | 0.00 | 72 | 1014.0 |
| 20260507032437 | 73 | 55 | 3.0 | 4.0 | 0.00 | 0.00 | 0.00 | 72 | 1014.0 |
| 20260507031437 | 72 | 55 | 3.0 | 4.0 | 0.00 | 0.00 | 0.00 | 72 | 1014.0 |
| 20260507030436 | 71 | 55 | 3.0 | 4.0 | 0.00 | 0.00 | 0.00 | 72 | 1014.0 |
| 20260507025436 | 70 | 55 | 3.0 | 4.0 | 0.00 | 0.00 | 0.00 | 72 | 1014.0 |
| 20260507024436 | 70 | 55 | 3.0 | 4.0 | 0.00 | 0.00 | 0.00 | 72 | 1014.0 |
| 20260507023435 | 75 | 63 | 3.0 | 4.0 | 0.00 | 0.00 | 0.00 | 67 | 1014.0 |
| 20260507022435 | 74 | 63 | 3.0 | 4.0 | 0.00 | 0.00 | 0.00 | 67 | 1013.0 |
| 20260507021434 | 73 | 63 | 3.0 | 4.0 | 0.00 | 0.00 | 0.00 | 67 | 1013.0 |
| 20260507020434 | 75 | 63 | 3.0 | 4.0 | 0.00 | 0.00 | 0.00 | 68 | 1013.0 |
| 20260507015434 | 74 | 63 | 3.0 | 4.0 | 0.00 | 0.00 | 0.00 | 68 | 1013.0 |
| 20260507014434 | 74 | 63 | 3.0 | 4.0 | 0.00 | 0.00 | 0.00 | 68 | 1013.0 |
| 20260507013433 | 77 | 73 | 4.0 | 4.0 | 0.00 | 0.00 | 0.00 | 63 | 1013.0 |
| 20260507012433 | 76 | 73 | 4.0 | 4.0 | 0.00 | 0.00 | 0.00 | 63 | 1012.0 |
| 20260507011433 | 76 | 73 | 4.0 | 4.0 | 0.00 | 0.00 | 0.00 | 63 | 1012.0 |
| 20260507010432 | 75 | 73 | 4.0 | 4.0 | 0.00 | 0.00 | 0.00 | 63 | 1012.0 |
| 20260507005432 | 74 | 73 | 4.0 | 4.0 | 0.00 | 0.00 | 0.00 | 63 | 1012.0 |
| 20260507004431 | 73 | 73 | 4.0 | 4.0 | 0.00 | 0.00 | 0.00 | 63 | 1012.0 |
| 20260507003430 | 78 | 79 | 4.0 | 10.0 | 0.00 | 0.00 | 0.00 | 56 | 1011.0 |
| 20260507002430 | 77 | 79 | 4.0 | 10.0 | 0.00 | 0.00 | 0.00 | 56 | 1011.0 |
| 20260507001430 | 76 | 79 | 4.0 | 10.0 | 0.00 | 0.00 | 0.00 | 56 | 1011.0 |
| 20260507000430 | 81 | 79 | 4.0 | 10.0 | 0.00 | 0.00 | 0.00 | 57 | 1011.0 |
| 20260506235429 | 80 | 79 | 4.0 | 10.0 | 0.00 | 0.00 | 0.00 | 57 | 1011.0 |
| 20260506234429 | 79 | 79 | 4.0 | 10.0 | 0.00 | 0.00 | 0.00 | 57 | 1011.0 |
| 20260506233428 | 83 | 89 | 7.0 | 11.0 | 0.00 | 0.00 | 0.00 | 53 | 1011.0 |
| 20260506232428 | 82 | 89 | 7.0 | 11.0 | 0.00 | 0.00 | 0.00 | 53 | 1010.0 |
| 20260506231428 | 81 | 89 | 7.0 | 11.0 | 0.00 | 0.00 | 0.00 | 53 | 1010.0 |
| 20260506230427 | 84 | 89 | 7.0 | 11.0 | 0.00 | 0.00 | 0.00 | 53 | 1010.0 |
| 20260506225427 | 83 | 89 | 7.0 | 11.0 | 0.00 | 0.00 | 0.00 | 53 | 1010.0 |
| 20260506224427 | 84 | 92 | 10.0 | 13.0 | 0.00 | 0.00 | 0.00 | 51 | 1010.0 |
| 20260506223426 | 84 | 92 | 10.0 | 13.0 | 0.00 | 0.00 | 0.00 | 51 | 1010.0 |
| 20260506222426 | 83 | 92 | 10.0 | 13.0 | 0.00 | 0.00 | 0.00 | 51 | 1010.0 |
| 20260506221426 | 83 | 92 | 10.0 | 13.0 | 0.00 | 0.00 | 0.00 | 51 | 1010.0 |
| 20260506220425 | 82 | 92 | 10.0 | 13.0 | 0.00 | 0.00 | 0.00 | 51 | 1010.0 |
| 20260506215424 | 81 | 92 | 10.0 | 13.0 | 0.00 | 0.00 | 0.00 | 51 | 1010.0 |
| 20260506214424 | 80 | 92 | 10.0 | 13.0 | 0.00 | 0.00 | 0.00 | 51 | 1010.0 |
| 20260506213424 | 87 | 82 | 10.0 | 11.0 | 0.00 | 0.00 | 0.00 | 43 | 1010.0 |
| 20260506212423 | 86 | 82 | 10.0 | 11.0 | 0.00 | 0.00 | 0.00 | 43 | 1010.0 |
| 20260506211423 | 85 | 82 | 10.0 | 11.0 | 0.00 | 0.00 | 0.00 | 43 | 1010.0 |
| 20260506210423 | 84 | 82 | 10.0 | 12.0 | 0.00 | 0.00 | 0.00 | 43 | 1010.0 |
| 20260506205422 | 87 | 82 | 10.0 | 11.0 | 0.00 | 0.00 | 0.00 | 44 | 1010.0 |
| 20260506204422 | 86 | 82 | 10.0 | 11.0 | 0.00 | 0.00 | 0.00 | 44 | 1010.0 |
| 20260506203422 | 85 | 82 | 10.0 | 12.0 | 0.00 | 0.00 | 0.00 | 44 | 1010.0 |
| 20260506202422 | 93 | 82 | 10.0 | 8.0 | 0.00 | 0.00 | 0.00 | 38 | 1010.0 |
| 20260506201421 | 92 | 82 | 10.0 | 8.0 | 0.00 | 0.00 | 0.00 | 38 | 1010.0 |
| 20260506200421 | 91 | 82 | 10.0 | 8.0 | 0.00 | 0.00 | 0.00 | 38 | 1010.0 |
| 20260506195421 | 90 | 82 | 10.0 | 9.0 | 0.00 | 0.00 | 0.00 | 38 | 1010.0 |
| 20260506194420 | 90 | 82 | 10.0 | 9.0 | 0.00 | 0.00 | 0.00 | 38 | 1010.0 |
| 20260506193420 | 94 | 83 | 8.0 | 8.0 | 0.00 | 0.00 | 0.00 | 45 | 1010.0 |
| 20260506192419 | 93 | 83 | 8.0 | 9.0 | 0.00 | 0.00 | 0.00 | 45 | 1011.0 |
| 20260506191419 | 95 | 83 | 8.0 | 8.0 | 0.00 | 0.00 | 0.00 | 50 | 1011.0 |
| 20260506190419 | 94 | 83 | 8.0 | 9.0 | 0.00 | 0.00 | 0.00 | 50 | 1011.0 |
| 20260506185418 | 95 | 64 | 7.0 | 8.0 | 0.00 | 0.00 | 0.00 | 53 | 1011.0 |
| 20260506184418 | 94 | 64 | 7.0 | 8.0 | 0.00 | 0.00 | 0.00 | 53 | 1011.0 |
| 20260506183418 | 93 | 64 | 7.0 | 8.0 | 0.00 | 0.00 | 0.00 | 53 | 1011.0 |
| 20260506182417 | 92 | 64 | 7.0 | 8.0 | 0.00 | 0.00 | 0.00 | 53 | 1012.0 |
| 20260506181417 | 91 | 64 | 7.0 | 8.0 | 0.00 | 0.00 | 0.00 | 53 | 1012.0 |
| 20260506180417 | 90 | 64 | 7.0 | 8.0 | 0.00 | 0.00 | 0.00 | 53 | 1012.0 |
| 20260506175416 | 89 | 64 | 7.0 | 8.0 | 0.00 | 0.00 | 0.00 | 53 | 1012.0 |
| 20260506174416 | 88 | 64 | 7.0 | 8.0 | 0.00 | 0.00 | 0.00 | 53 | 1012.0 |
| 20260506173416 | 87 | 64 | 7.0 | 8.0 | 0.00 | 0.00 | 0.00 | 53 | 1012.0 |
| 20260506172416 | 86 | 64 | 7.0 | 8.0 | 0.00 | 0.00 | 0.00 | 53 | 1013.0 |
| 20260506171415 | 86 | 64 | 7.0 | 8.0 | 0.00 | 0.00 | 0.00 | 53 | 1013.0 |
| 20260506170415 | 85 | 64 | 7.0 | 8.0 | 0.00 | 0.00 | 0.00 | 53 | 1013.0 |
| 20260506165414 | 85 | 64 | 7.0 | 8.0 | 0.00 | 0.00 | 0.00 | 53 | 1013.0 |
| 20260506164414 | 84 | 64 | 7.0 | 8.0 | 0.00 | 0.00 | 0.00 | 53 | 1013.0 |
| 20260506163414 | 84 | 64 | 7.0 | 8.0 | 0.00 | 0.00 | 0.00 | 53 | 1013.0 |
| 20260506162414 | 83 | 64 | 7.0 | 9.0 | 0.00 | 0.00 | 0.00 | 53 | 1014.0 |
| 20260506161413 | 89 | 55 | 5.0 | 10.0 | 0.00 | 0.00 | 0.00 | 57 | 1014.0 |
| 20260506160413 | 88 | 55 | 5.0 | 10.0 | 0.00 | 0.00 | 0.00 | 57 | 1014.0 |
| 20260506155412 | 87 | 55 | 5.0 | 10.0 | 0.00 | 0.00 | 0.00 | 57 | 1014.0 |
| 20260506154412 | 86 | 55 | 5.0 | 10.0 | 0.00 | 0.00 | 0.00 | 57 | 1014.0 |
| 20260506153412 | 85 | 55 | 5.0 | 10.0 | 0.00 | 0.00 | 0.00 | 57 | 1014.0 |
| 20260506152411 | 84 | 55 | 5.0 | 10.0 | 0.00 | 0.00 | 0.00 | 57 | 1014.0 |
| 20260506151411 | 83 | 55 | 5.0 | 10.0 | 0.00 | 0.00 | 0.00 | 57 | 1014.0 |
| 20260506150411 | 82 | 55 | 5.0 | 10.0 | 0.00 | 0.00 | 0.00 | 57 | 1014.0 |
| 20260506145411 | 81 | 55 | 5.0 | 10.0 | 0.00 | 0.00 | 0.00 | 57 | 1014.0 |
| 20260506144410 | 80 | 55 | 5.0 | 10.0 | 0.00 | 0.00 | 0.00 | 57 | 1014.0 |
| 20260506143410 | 79 | 55 | 6.0 | 10.0 | 0.00 | 0.00 | 0.00 | 57 | 1014.0 |
| 20260506142410 | 81 | 52 | 5.0 | 8.0 | 0.00 | 0.00 | 0.00 | 68 | 1014.0 |
| 20260506141409 | 80 | 52 | 5.0 | 8.0 | 0.00 | 0.00 | 0.00 | 68 | 1014.0 |
| 20260506140409 | 79 | 52 | 5.0 | 8.0 | 0.00 | 0.00 | 0.00 | 68 | 1014.0 |
| 20260506135409 | 78 | 52 | 5.0 | 8.0 | 0.00 | 0.00 | 0.00 | 68 | 1014.0 |
| 20260506134408 | 77 | 52 | 5.0 | 8.0 | 0.00 | 0.00 | 0.00 | 68 | 1014.0 |
| 20260506133408 | 76 | 52 | 5.0 | 9.0 | 0.00 | 0.00 | 0.00 | 68 | 1014.0 |